Flag for Poland Weather past 2 weeks in Gdańsk, Poland

37 °F

Light rain. More clouds than sun.

Feels Like: 31 °F
Forecast: 40 / 50 °F
Wind: 9 mph from East

Location: Gdansk-Rebiechowo

Current Time: Oct 13, 2015 at 9:29:59 AM

Latest Report: Oct 13, 2015 at 9:00 AM

Visibility: N/A

Pressure: 30.21 "Hg

Humidity: 81%

Dew point: 32 °F

Location of GdańskLocation

Historic Weather in Gdańsk — Graph


Gdańsk temperature yesterday

Maximum temperature yesterday: 45 °F (at 1:00 PM)
Minimum temperature yesterday: 28 °F (at 3:30 AM)
Average temperature yesterday: 37 °F

Past Weeks' High & Low Weather Summary

High70 °F (Oct 4, 3:30 PM)100% (Sep 29, 5:30 AM)30.69 "Hg (Sep 29, 5:30 AM)
Low25 °F (Oct 10, 7:30 AM)35% (Oct 8, 4:00 PM)29.89 "Hg (Oct 4, 10:30 AM)
Average47 °F75%30.28 "Hg
* Reported Sep 28 8:00 AM — Oct 13 8:30 AM, Gdańsk, Weather by CustomWeather, © 2015

Note: Actual official high and low records may vary slightly from our data, if they occured in-between our weather recording intervals... More about our weather records


Gdańsk weather history for previous 24 hours

Time TempWeatherWind HumidityBarometerVisibility
8:30 AM
Tue, Oct 13
37 °FLight rain. Overcast.7 mph81%30.21 "HgN/A
8:00 AM37 °FPartly cloudy.8 mph81%30.21 "HgN/A
7:30 AM37 °FPassing clouds.8 mph81%30.21 "HgN/A
7:00 AM37 °FLight rain. Passing clouds.6 mph81%30.21 "HgN/A
6:30 AM37 °FLight rain. Passing clouds.6 mph87%30.21 "HgN/A
6:00 AM37 °FLight rain. Passing clouds.8 mph81%30.24 "HgN/A
5:30 AM37 °FLight rain. Passing clouds.3 mph87%30.24 "HgN/A
5:00 AM37 °FPassing clouds.5 mph87%30.24 "HgN/A
4:30 AM37 °FLight rain. Passing clouds.3 mph87%30.24 "HgN/A
4:00 AM37 °FLight rain. Passing clouds.3 mph81%30.24 "HgN/A
3:30 AM37 °FLight rain. Passing clouds.9 mph75%30.27 "HgN/A
3:00 AM39 °FPassing clouds.5 mph65%30.27 "HgN/A
2:30 AM39 °FPassing clouds.7 mph65%30.27 "HgN/A
2:00 AM39 °FPassing clouds.8 mph65%30.27 "HgN/A
1:30 AM41 °FPassing clouds.9 mph61%30.27 "HgN/A
1:00 AM41 °FPassing clouds.9 mph57%30.27 "HgN/A
12:30 AM41 °FClear.9 mph57%30.27 "Hg10 mi
12:00 AM41 °FClear.8 mph57%30.30 "Hg10 mi
11:30 PM
Mon, Oct 12
41 °FClear.8 mph57%30.30 "Hg10 mi
11:00 PM41 °FPassing clouds.7 mph57%30.30 "HgN/A
10:30 PM41 °FPassing clouds.8 mph57%30.30 "HgN/A
10:00 PM41 °FPassing clouds.8 mph57%30.30 "HgN/A
9:30 PM41 °FPassing clouds.9 mph57%30.30 "HgN/A
9:00 PM41 °FPassing clouds.9 mph57%30.33 "HgN/A
8:30 PM41 °FPassing clouds.12 mph53%30.33 "HgN/A
8:00 PM41 °FClear.9 mph53%30.33 "Hg10 mi
7:30 PM41 °FClear.9 mph57%30.33 "Hg10 mi
7:00 PM41 °FClear.9 mph57%30.33 "Hg10 mi
6:30 PM41 °FSunny.8 mph57%30.33 "Hg10 mi
6:00 PM41 °FSunny.8 mph57%30.33 "Hg10 mi
5:30 PM41 °FSunny.9 mph53%30.33 "Hg10 mi
5:00 PM41 °FSunny.10 mph53%30.33 "Hg10 mi
4:30 PM43 °FSunny.8 mph49%30.33 "Hg10 mi
4:00 PM43 °FSunny.12 mph49%30.33 "Hg10 mi
3:30 PM43 °FPassing clouds.10 mph49%30.33 "HgN/A
3:00 PM45 °FPassing clouds.12 mph49%30.33 "HgN/A
2:30 PM45 °FPassing clouds.13 mph49%30.33 "HgN/A
2:00 PM43 °FPassing clouds.13 mph49%30.33 "HgN/A
1:30 PM45 °FPassing clouds.16 mph46%30.36 "HgN/A
1:00 PM45 °FPassing clouds.13 mph46%30.36 "HgN/A
12:30 PM43 °FPassing clouds.14 mph49%30.36 "HgN/A
12:00 PM43 °FSunny.12 mph49%30.36 "Hg10 mi
11:30 AM43 °FPassing clouds.13 mph53%30.36 "HgN/A
11:00 AM41 °FSunny.9 mph57%30.36 "Hg10 mi
10:30 AM39 °FSunny.9 mph61%30.36 "Hg10 mi
10:00 AM37 °FPassing clouds.9 mph65%30.36 "HgN/A
9:30 AM36 °FSunny.12 mph70%30.36 "Hg10 mi
9:00 AM36 °FSunny.8 mph70%30.36 "Hg10 mi
Weather by CustomWeather, © 2015

See weather overviewHow to use our weather pages